Regional Weather Roundup
Issued by NWS Newport/Morehead, NC

Current Version | Previous Version | Graphics & Text | Print | Product List | Glossary Off
Versions: 1 2 3 4 5 6 7 8 9 10 11 12 13 14 15 16 17 18 19 20 21 22 23 24 25 26 27 28 29 30 31 32 33 34 35 36 37 38 39 40 41 42 43 44 45 46 47 48 49 50

557
ASUS42 KMHX 202014
RWRMHX
WEATHER ROUNDUP FOR EASTERN NORTH CAROLINA
NATIONAL WEATHER SERVICE NEWPORT/MOREHEAD CITY NC
400 PM EDT THU JUL 20 2017

NOTE: "FAIR" INDICATES FEW OR NO CLOUDS BELOW 12,000 FEET
WITH NO SIGNIFICANT WEATHER AND/OR OBSTRUCTIONS TO VISIBILITY

NCZ015>017-031-032-045>047-102-103-202100-
NORTH COAST

CITY           SKY/WX    TMP DP  RH WIND       PRES   REMARKS
EDENTON        SUNNY     91  73  56 CALM      30.01F
ELIZABETH CITY MOSUNNY   90  71  53 S7        30.00F
KITTY HAWK     PTCLDY    87  72  60 CALM      30.01F
MANTEO         SUNNY     86  72  64 S10       30.02F

$$

NCZ045>047-081-094-103-104-202100-
CENTRAL COAST

CITY           SKY/WX    TMP DP  RH WIND       PRES   REMARKS
FRISCO         SUNNY     87  73  62 SW6       30.04F

$$

NCZ095-097-098-100-101-202100-
SOUTHERN COAST

CITY           SKY/WX    TMP DP  RH WIND       PRES   REMARKS
BEAUFORT       SUNNY     85  76  74 SW12      30.04F
CEDAR ISLAND   NOT AVBL
JACKSONVILLE   PTSUNNY   88  75  65 S9        30.02F
PINEY ISLAND   MOCLDY   N/A N/A N/A S8        30.03F
WILMINGTON     SUNNY     88  74  63 S7        30.03F


$$

NCZ011>013-027>030-043-044-078>080-089-090>093-098-202100-
COASTAL PLAIN

CITY           SKY/WX    TMP DP  RH WIND       PRES   REMARKS
AHOSKIE          N/A     89  71  54 CALM      30.00F
CLINTON        SUNNY     93  72  49 CALM      30.02F HX 100
ELIZABETHTOWN  NOT AVBL
GOLDSBORO      SUNNY     94  70  44 S5        30.00F HX 100
GREENVILLE     SUNNY     91  70  49 SE3       30.03F
HAVELOCK       MOSUNNY   89  73  59 S9        30.03F
KENANSVILLE    PTSUNNY   88  73  62 S3        30.01F
KINSTON        MOSUNNY   93  68  43 S6        30.01F
NEW BERN       MOSUNNY   92  72  51 CALM      30.02F
RICHLANDS      PTSUNNY   90  72  55 SW3       30.02F
ROCKY MOUNT    SUNNY     94  67  41 S3        30.01F
WASHINGTON     SUNNY     91  71  51 SE7       30.01F
WHITEVILLE     SUNNY     93  70  47 S7        30.02F

$$

AMZ130-135-150-152-154-156-158-170-250-252-270-ANZ085-086-088-633-658-670-202100-
MARINE OBSERVATIONS

STATION/POSITION TIME  TEMP    WIND        PRES    WAVE   SWELL
                       AIR SEA DIR/SP/G            HT/PER HT/PER
                 (UTC) (F)     (DEG/KT/KT) (MB)    (FT/S) (FT/S)
CHESAPEAKE LIGHT NOT AVBL
64 E VA BEACH    1950   80 82  200/ 12/ 14 1016.8    2/ 7   2/ 7
DUCK             1936   75 63  140/ 10/ 12 1016.1
2 E DUCK         2000      71                N/A     2/12   2/12
OREGON INLET     1936   84 85  170/  9/ 12 1016.7
13E OREGON INLT  1948      77                N/A     2/15   2/15
HATTERAS CG      1936   85 81  180/  5/  8 1017.4
DIAMOND BUOY     1950   83 88  200/  6/  8 1017.3    2/ 7   2/ 7
CAPE LOOKOUT     2000   84     190/  7/  9 1016.9
BEAUFORT LAB     1936   83 81  190/ 10/ 12 1016.8
30 SE NEW RVR IN 1908   81 85  210/  8/ 10 1017.9
30 SE NEW RVR IN 1943      84                N/A     2/15   2/15
27 SE WRIGHTSVLE 1908   82 82  230/  6/  8 1017.8
5 SE WRIGHTSVLE  1908   82 83  190/ 10/ 14 1017.5
225 S CAPE HAT   1950   81 84  200/  8/ 10 1018.4    3/ 7   3/ 7
41 SE CHARLESTON 1950   83 85  170/  8/ 10 1017.4    2/ 7   2/ 7

$$




USA.gov is the U.S. government's official web portal to all federal, state and local government web resources and services.